Weather History for Valentine, NE

Change the Weather History Date:

Friday, September 21, 2012

  Actual Average Record
Temperature  
Mean Temperature 62 °F 60 °F  
Max Temperature 78 °F 75 °F 96 °F (1922)
Min Temperature 45 °F 45 °F 25 °F (1995)
Degree Days  
Heating Degree Days 3 7  
Month to date heating degree days 64 82  
Since 1 July heating degree days 70 107  
Cooling Degree Days 0 1  
Month to date cooling degree days 102 73  
Year to date cooling degree days 1300 809  
Growing Degree Days 12 (Base 50)    
Moisture  
Dew Point 33 °F    
Average Humidity 40    
Maximum Humidity 60    
Minimum Humidity 20    
Precipitation  
Precipitation 0.00 in 0.05 in 1.44 in (1920)
Month to date precipitation 0.22 1.14  
Year to date precipitation 9.46 17.25  
Snow  
Snow 0.00 in 0.00 in 0.00 in ()
Month to date snowfall 0.0 0.3  
Since 1 July snowfall 0.0 0.3  
Since 1 September snowfall 0.0 0.3  
Snow Depth 0.00 in    
Sea Level Pressure  
Sea Level Pressure 30.00 in    
Wind  
Wind Speed 12 mph (NW)    
Max Wind Speed 24 mph    
Max Gust Speed 31 mph    
Visibility 10 miles    
Events      
T = Trace of Precipitation, MM = Missing Value Source: NWS Daily Summary

Daily Weather History Graph

Daily Weather History Graph

Search for Another Location

Airport:

Trip Planner

Search our weather history database for the weather conditions in past years. The results will help you decide how hot, cold, wet, or windy it might be!

Date:

Astronomy

Sep. 21, 2012 Rise Set
Actual Time 7:29 AM CDT 7:40 PM CDT
Civil Twilight 7:00 AM CDT 8:08 PM CDT
Nautical Twilight 6:27 AM CDT 8:41 PM CDT
Astronomical Twilight 5:53 AM CDT 9:15 PM CDT
Moon 2:01 PM CDT (9/21) 11:34 PM CDT (9/21)
Length of Visible Light 13h 07m
Length of Day
12h 11m
Waxing Crescent, 37% of the Moon is Illuminated
Sep 21
Waxing Crescent
Sep 22
First Quarter
Sep 29
Full
Oct 8
Last Quarter
Oct 15
New

Hourly Weather History & Observations

Time (CDT) Temp. Windchill Dew Point Humidity Pressure Visibility Wind Dir Wind Speed Gust Speed Precip Events Conditions
12:52 AM 52.0 °F - 33.1 °F 49% 29.96 in 10.0 mi WNW 8.1 mph - N/A   Clear
1:52 AM 51.1 °F - 32.0 °F 48% 29.96 in 10.0 mi WNW 6.9 mph - N/A   Clear
2:52 AM 50.0 °F - 32.0 °F 50% 29.96 in 10.0 mi WNW 8.1 mph - N/A   Clear
3:52 AM 48.9 °F - 32.0 °F 52% 29.96 in 10.0 mi WNW 9.2 mph - N/A   Clear
4:52 AM 46.9 °F - 33.1 °F 59% 29.97 in 10.0 mi WNW 9.2 mph - N/A   Clear
5:52 AM 46.9 °F - 33.1 °F 59% 29.97 in 10.0 mi WNW 10.4 mph - N/A   Clear
6:52 AM 46.0 °F 43.1 °F 33.1 °F 61% 30.00 in 10.0 mi NW 5.8 mph - N/A   Clear
7:52 AM 46.0 °F 41.4 °F 33.1 °F 61% 30.02 in 10.0 mi WNW 9.2 mph - N/A   Clear
8:52 AM 50.0 °F - 34.0 °F 54% 30.03 in 10.0 mi WNW 9.2 mph - N/A   Clear
9:52 AM 60.1 °F - 35.1 °F 39% 30.04 in 10.0 mi WNW 10.4 mph - N/A   Clear
10:52 AM 66.0 °F - 34.0 °F 30% 30.03 in 10.0 mi NNW 13.8 mph - N/A   Clear
11:52 AM 69.1 °F - 33.1 °F 26% 30.02 in 10.0 mi NNW 17.3 mph 24.2 mph N/A   Clear
12:52 PM 71.1 °F - 33.1 °F 25% 30.01 in 10.0 mi NNW 12.7 mph 26.5 mph N/A   Clear
1:52 PM 73.0 °F - 33.1 °F 23% 29.99 in 10.0 mi NNW 19.6 mph 26.5 mph N/A   Clear
2:52 PM 75.9 °F - 33.1 °F 21% 29.97 in 10.0 mi NNW 23.0 mph 29.9 mph N/A   Clear
3:52 PM 77.0 °F - 33.1 °F 20% 29.95 in 10.0 mi NNW 16.1 mph 24.2 mph N/A   Clear
4:52 PM 77.0 °F - 33.1 °F 20% 29.94 in 10.0 mi NW 20.7 mph 28.8 mph N/A   Clear
5:52 PM 77.0 °F - 33.8 °F 21% 29.96 in 10.0 mi NW 21.9 mph 29.9 mph N/A   Clear
6:52 PM 73.9 °F - 34.0 °F 23% 29.96 in 10.0 mi NNW 11.5 mph 20.7 mph N/A   Clear
7:52 PM 69.1 °F - 33.1 °F 26% 29.99 in 10.0 mi North 11.5 mph - N/A   Clear
8:52 PM 64.9 °F - 32.0 °F 29% 30.02 in 10.0 mi North 10.4 mph - N/A   Clear
9:52 PM 63.0 °F - 30.9 °F 30% 30.04 in 10.0 mi North 15.0 mph - N/A   Clear
10:52 PM 59.0 °F - 30.9 °F 35% 30.08 in 10.0 mi NNE 12.7 mph - N/A   Clear
11:52 PM 55.9 °F - 30.9 °F 39% 30.11 in 10.0 mi NNE 8.1 mph - N/A   Clear